Location: *
(55.5817°S, 142.4781°W)
Time: 07:41:50
(UTC+00:00)

Cosmos 1459 Rocket - Pass Details

Date: 29 April 2025
Orbit: 935 x 999 km, 83.0° (Epoch: 23 May)

Event Time Altitude Azimuth Distance (km) Brightness Sun altitude
Exits shadow 14:15:11 40° 298° (WNW) 1,419 4.4 -22.2°
Maximum altitude 14:17:00 52° 251° (WSW) 1,221 4.1 -22.0°
Drops below altitude 10° 14:23:17 10° 174° (S) 2,799 6.5 -21.1°
Sets 14:25:57 0° 169° (SSE) 3,759 7.3 -20.7°
